Time,TemperatureF,DewpointF,PressureIn,WindDirection,WindDirectionDegrees,WindSpeedMPH,WindSpeedGustMPH,Humidity,HourlyPrecipIn,Conditions,Clouds,dailyrainin,SoftwareType,DateUTC
2013-02-01 00:04:00,50.4,37.4,30.37,WSW,248,7.0,8.0,61,0.00,,,0.00,meteohub,2013-02-01 06:04:00,
2013-02-01 00:09:00,49.8,37.4,30.37,WSW,243,2.0,7.0,62,0.00,,,0.00,meteohub,2013-02-01 06:09:00,
2013-02-01 00:14:00,49.5,37.4,30.37,WSW,244,2.0,7.0,63,0.00,,,0.00,meteohub,2013-02-01 06:14:00,
2013-02-01 00:19:00,48.9,37.2,30.36,WSW,244,3.0,7.0,64,0.00,,,0.00,meteohub,2013-02-01 06:19:00,
2013-02-01 00:24:00,49.3,37.6,30.36,WSW,244,4.0,6.0,64,0.00,,,0.00,meteohub,2013-02-01 06:24:00,
2013-02-01 00:29:00,49.3,37.6,30.37,WSW,244,2.0,4.0,64,0.00,,,0.00,meteohub,2013-02-01 06:29:00,
2013-02-01 00:34:00,49.1,37.8,30.37,WSW,244,3.0,4.0,65,0.00,,,0.00,meteohub,2013-02-01 06:34:00,
2013-02-01 00:39:00,49.1,37.8,30.36,WSW,245,5.0,5.0,65,0.00,,,0.00,meteohub,2013-02-01 06:39:00,
2013-02-01 00:44:00,49.3,37.6,30.36,WSW,246,5.0,6.0,64,0.00,,,0.00,meteohub,2013-02-01 06:44:00,
2013-02-01 00:49:00,49.5,37.4,30.37,WSW,248,4.0,6.0,63,0.00,,,0.00,meteohub,2013-02-01 06:49:00,
2013-02-01 00:54:00,49.5,37.8,30.36,WSW,249,2.0,7.0,64,0.00,,,0.00,meteohub,2013-02-01 06:54:00,
2013-02-01 00:59:00,49.1,37.8,30.37,WSW,254,2.0,7.0,65,0.00,,,0.00,meteohub,2013-02-01 06:59:00,
2013-02-01 01:04:00,48.9,37.8,30.36,WSW,254,1.0,7.0,65,0.00,,,0.00,meteohub,2013-02-01 07:04:00,
2013-02-01 01:09:00,48.7,37.9,30.36,WSW,254,2.0,5.0,66,0.00,,,0.00,meteohub,2013-02-01 07:09:00,
2013-02-01 01:14:00,48.9,38.1,30.36,WSW,254,2.0,5.0,66,0.00,,,0.00,meteohub,2013-02-01 07:14:00,
2013-02-01 01:19:00,48.9,37.8,30.35,WSW,252,4.0,5.0,65,0.00,,,0.00,meteohub,2013-02-01 07:19:00,
2013-02-01 01:24:00,49.1,38.3,30.36,WSW,253,2.0,5.0,66,0.00,,,0.00,meteohub,2013-02-01 07:24:00,
2013-02-01 01:29:00,48.9,38.1,30.36,WSW,254,1.0,5.0,66,0.00,,,0.00,meteohub,2013-02-01 07:29:00,
2013-02-01 01:34:00,48.9,38.1,30.35,WSW,254,2.0,5.0,66,0.00,,,0.00,meteohub,2013-02-01 07:34:00,
2013-02-01 01:39:00,49.1,38.3,30.36,WSW,254,3.0,5.0,66,0.00,,,0.00,meteohub,2013-02-01 07:39:00,
2013-02-01 01:44:00,48.9,38.5,30.36,WSW,254,2.0,5.0,67,0.00,,,0.00,meteohub,2013-02-01 07:44:00,
2013-02-01 01:49:00,48.9,38.5,30.36,WSW,253,2.0,5.0,67,0.00,,,0.00,meteohub,2013-02-01 07:49:00,
2013-02-01 01:54:00,48.9,38.5,30.35,WSW,253,1.0,5.0,67,0.00,,,0.00,meteohub,2013-02-01 07:54:00,
2013-02-01 01:59:00,49.5,38.7,30.35,WSW,254,3.0,5.0,66,0.00,,,0.00,meteohub,2013-02-01 07:59:00,
2013-02-01 02:04:00,49.8,38.5,30.35,WSW,248,4.0,5.0,65,0.00,,,0.00,meteohub,2013-02-01 08:04:00,
2013-02-01 02:09:00,50.4,38.3,30.35,WSW,246,6.0,6.0,63,0.00,,,0.00,meteohub,2013-02-01 08:09:00,
2013-02-01 02:14:00,51.1,38.5,30.35,WSW,242,5.0,8.0,62,0.00,,,0.00,meteohub,2013-02-01 08:14:00,
2013-02-01 02:19:00,51.6,38.7,30.34,WSW,243,7.0,8.0,61,0.00,,,0.00,meteohub,2013-02-01 08:19:00,
2013-02-01 02:24:00,52.0,38.5,30.34,WSW,245,5.0,10.0,60,0.00,,,0.00,meteohub,2013-02-01 08:24:00,
2013-02-01 02:29:00,51.8,38.3,30.34,WSW,238,8.0,10.0,60,0.00,,,0.00,meteohub,2013-02-01 08:29:00,
2013-02-01 02:34:00,51.4,38.5,30.35,WSW,243,8.0,10.0,61,0.00,,,0.00,meteohub,2013-02-01 08:34:00,
2013-02-01 02:39:00,51.3,38.7,30.34,WSW,246,5.0,10.0,62,0.00,,,0.00,meteohub,2013-02-01 08:39:00,
2013-02-01 02:44:00,50.9,38.8,30.34,WSW,246,5.0,10.0,63,0.00,,,0.00,meteohub,2013-02-01 08:44:00,
2013-02-01 02:49:00,50.4,39.0,30.34,WSW,243,2.0,10.0,65,0.00,,,0.00,meteohub,2013-02-01 08:49:00,
2013-02-01 02:54:00,49.8,39.4,30.34,WSW,254,3.0,9.0,67,0.00,,,0.00,meteohub,2013-02-01 08:54:00,
2013-02-01 02:59:00,49.5,39.4,30.34,WSW,252,2.0,7.0,68,0.00,,,0.00,meteohub,2013-02-01 08:59:00,
2013-02-01 03:04:00,48.9,39.2,30.35,WSW,253,2.0,6.0,69,0.00,,,0.00,meteohub,2013-02-01 09:04:00,
2013-02-01 03:10:00,48.6,39.6,30.34,WSW,253,3.0,5.0,71,0.00,,,0.00,meteohub,2013-02-01 09:10:00,
2013-02-01 03:15:00,48.4,39.4,30.33,WSW,253,1.0,4.0,71,0.00,,,0.00,meteohub,2013-02-01 09:15:00,
2013-02-01 03:20:00,49.3,39.6,30.34,WSW,253,5.0,5.0,69,0.00,,,0.00,meteohub,2013-02-01 09:20:00,
2013-02-01 03:25:00,49.6,39.6,30.34,WSW,252,2.0,6.0,68,0.00,,,0.00,meteohub,2013-02-01 09:25:00,
2013-02-01 03:30:00,49.5,39.4,30.34,WSW,248,4.0,6.0,68,0.00,,,0.00,meteohub,2013-02-01 09:30:00,
2013-02-01 03:35:00,49.6,39.6,30.34,WSW,249,3.0,6.0,68,0.00,,,0.00,meteohub,2013-02-01 09:35:00,
2013-02-01 03:40:00,49.6,39.6,30.35,WSW,256,4.0,6.0,68,0.00,,,0.00,meteohub,2013-02-01 09:40:00,
2013-02-01 03:45:00,49.3,39.6,30.35,WSW,254,4.0,5.0,69,0.00,,,0.00,meteohub,2013-02-01 09:45:00,
2013-02-01 03:50:00,49.3,39.9,30.35,WSW,255,2.0,5.0,70,0.00,,,0.00,meteohub,2013-02-01 09:50:00,
2013-02-01 03:55:00,49.3,39.9,30.35,WSW,254,2.0,6.0,70,0.00,,,0.00,meteohub,2013-02-01 09:55:00,
2013-02-01 04:00:00,48.9,39.9,30.35,WSW,254,2.0,6.0,71,0.00,,,0.00,meteohub,2013-02-01 10:00:00,
2013-02-01 04:05:00,48.7,40.1,30.35,WSW,254,3.0,5.0,72,0.00,,,0.00,meteohub,2013-02-01 10:05:00,
2013-02-01 04:10:00,48.6,39.9,30.35,WSW,254,3.0,4.0,72,0.00,,,0.00,meteohub,2013-02-01 10:10:00,
2013-02-01 04:15:00,48.4,39.4,30.35,WSW,254,2.0,4.0,71,0.00,,,0.00,meteohub,2013-02-01 10:15:00,
2013-02-01 04:20:00,48.0,39.0,30.35,WSW,254,2.0,4.0,71,0.00,,,0.00,meteohub,2013-02-01 10:20:00,
2013-02-01 04:25:00,48.4,39.7,30.35,WSW,254,2.0,4.0,72,0.00,,,0.00,meteohub,2013-02-01 10:25:00,
2013-02-01 04:30:00,48.4,39.7,30.34,WSW,254,2.0,3.0,72,0.00,,,0.00,meteohub,2013-02-01 10:30:00,
2013-02-01 04:35:00,48.6,39.6,30.34,WSW,254,2.0,3.0,71,0.00,,,0.00,meteohub,2013-02-01 10:35:00,
2013-02-01 04:40:00,48.6,39.9,30.35,WSW,254,2.0,3.0,72,0.00,,,0.00,meteohub,2013-02-01 10:40:00,
2013-02-01 04:45:00,48.9,40.6,30.35,WSW,254,2.0,4.0,73,0.00,,,0.00,meteohub,2013-02-01 10:45:00,
2013-02-01 04:50:00,49.1,40.8,30.35,WSW,254,1.0,4.0,73,0.00,,,0.00,meteohub,2013-02-01 10:50:00,
2013-02-01 04:55:00,49.3,41.0,30.35,WSW,254,3.0,4.0,73,0.00,,,0.00,meteohub,2013-02-01 10:55:00,
2013-02-01 05:00:00,48.7,40.5,30.35,WSW,254,1.0,4.0,73,0.00,,,0.00,meteohub,2013-02-01 11:00:00,
2013-02-01 05:05:00,47.8,40.3,30.35,WSW,254,2.0,4.0,75,0.00,,,0.00,meteohub,2013-02-01 11:05:00,
2013-02-01 05:10:00,47.1,40.3,30.35,WSW,254,0.0,4.0,77,0.00,,,0.00,meteohub,2013-02-01 11:10:00,
2013-02-01 05:15:00,46.9,40.1,30.35,WSW,254,1.0,2.0,77,0.00,,,0.00,meteohub,2013-02-01 11:15:00,
2013-02-01 05:20:00,46.9,40.5,30.36,WSW,254,1.0,2.0,78,0.00,,,0.00,meteohub,2013-02-01 11:20:00,
2013-02-01 05:25:00,47.8,41.4,30.37,WSW,254,1.0,2.0,78,0.00,,,0.00,meteohub,2013-02-01 11:25:00,
2013-02-01 05:30:00,48.7,41.5,30.38,WSW,254,3.0,3.0,76,0.00,,,0.00,meteohub,2013-02-01 11:30:00,
2013-02-01 05:35:00,48.9,41.4,30.37,WSW,254,2.0,3.0,75,0.00,,,0.00,meteohub,2013-02-01 11:35:00,
2013-02-01 05:40:00,48.9,41.0,30.37,WSW,254,1.0,3.0,74,0.00,,,0.00,meteohub,2013-02-01 11:40:00,
2013-02-01 05:45:00,48.7,40.8,30.37,WSW,254,0.0,3.0,74,0.00,,,0.00,meteohub,2013-02-01 11:45:00,
2013-02-01 05:50:00,47.8,40.6,30.37,WSW,254,0.0,2.0,76,0.00,,,0.00,meteohub,2013-02-01 11:50:00,
2013-02-01 05:55:00,48.2,41.4,30.38,WSW,254,0.0,2.0,77,0.00,,,0.00,meteohub,2013-02-01 11:55:00,
2013-02-01 06:00:00,48.6,41.4,30.38,WSW,254,0.0,1.0,76,0.00,,,0.00,meteohub,2013-02-01 12:00:00,
2013-02-01 06:05:00,48.6,41.4,30.38,WSW,254,0.0,1.0,76,0.00,,,0.00,meteohub,2013-02-01 12:05:00,
2013-02-01 06:10:00,48.7,41.5,30.38,WSW,254,0.0,1.0,76,0.00,,,0.00,meteohub,2013-02-01 12:10:00,
2013-02-01 06:15:00,48.0,41.5,30.38,WSW,254,0.0,1.0,78,0.00,,,0.00,meteohub,2013-02-01 12:15:00,
2013-02-01 06:20:00,47.1,41.4,30.38,WSW,254,0.0,1.0,80,0.00,,,0.00,meteohub,2013-02-01 12:20:00,
2013-02-01 06:25:00,46.9,41.2,30.38,WSW,254,1.0,1.0,80,0.00,,,0.00,meteohub,2013-02-01 12:25:00,
2013-02-01 06:30:00,46.8,41.5,30.39,NW,319,4.0,4.0,82,0.00,,,0.00,meteohub,2013-02-01 12:30:00,
2013-02-01 06:35:00,46.6,42.1,30.39,NW,323,0.0,5.0,84,0.00,,,0.00,meteohub,2013-02-01 12:35:00,
2013-02-01 06:40:00,46.0,42.1,30.40,NW,323,0.0,5.0,86,0.00,,,0.00,meteohub,2013-02-01 12:40:00,
2013-02-01 06:45:00,46.2,42.6,30.40,NW,323,0.0,5.0,87,0.00,,,0.00,meteohub,2013-02-01 12:45:00,
2013-02-01 06:51:00,46.8,42.4,30.40,NW,323,0.0,1.0,85,0.00,,,0.00,meteohub,2013-02-01 12:51:00,
2013-02-01 06:56:00,47.1,42.8,30.40,NW,323,0.0,0.0,85,0.00,,,0.00,meteohub,2013-02-01 12:56:00,
2013-02-01 07:01:00,46.9,42.4,30.40,NW,323,0.0,1.0,84,0.00,,,0.00,meteohub,2013-02-01 13:01:00,
2013-02-01 07:06:00,46.2,41.9,30.40,NW,323,0.0,1.0,85,0.00,,,0.00,meteohub,2013-02-01 13:06:00,
2013-02-01 07:11:00,46.0,41.7,30.41,NW,323,0.0,1.0,85,0.00,,,0.00,meteohub,2013-02-01 13:11:00,
2013-02-01 07:16:00,45.9,41.9,30.41,NW,323,0.0,2.0,86,0.00,,,0.00,meteohub,2013-02-01 13:16:00,
2013-02-01 07:21:00,46.0,42.1,30.42,NW,323,2.0,2.0,86,0.00,,,0.00,meteohub,2013-02-01 13:21:00,
2013-02-01 07:26:00,46.0,41.7,30.41,NW,323,2.0,3.0,85,0.00,,,0.00,meteohub,2013-02-01 13:26:00,
2013-02-01 07:31:00,46.6,42.1,30.42,NW,323,4.0,4.0,84,0.00,,,0.00,meteohub,2013-02-01 13:31:00,
2013-02-01 07:36:00,46.9,41.7,30.42,NNW,335,3.0,6.0,82,0.00,,,0.00,meteohub,2013-02-01 13:36:00,
2013-02-01 07:41:00,47.5,41.5,30.42,NNW,348,4.0,7.0,80,0.00,,,0.00,meteohub,2013-02-01 13:41:00,
2013-02-01 07:46:00,47.8,41.4,30.42,NNW,348,4.0,8.0,78,0.00,,,0.00,meteohub,2013-02-01 13:46:00,
2013-02-01 07:51:00,47.8,41.0,30.42,North,355,3.0,8.0,77,0.00,,,0.00,meteohub,2013-02-01 13:51:00,
2013-02-01 07:56:00,48.0,40.8,30.42,North,355,2.0,8.0,76,0.00,,,0.00,meteohub,2013-02-01 13:56:00,
2013-02-01 08:01:00,48.2,41.0,30.42,North,355,3.0,6.0,76,0.00,,,0.00,meteohub,2013-02-01 14:01:00,
2013-02-01 08:06:00,48.4,40.8,30.42,North,355,2.0,5.0,75,0.00,,,0.00,meteohub,2013-02-01 14:06:00,
2013-02-01 08:11:00,48.6,41.7,30.42,North,355,2.0,5.0,77,0.00,,,0.00,meteohub,2013-02-01 14:11:00,
2013-02-01 08:16:00,48.6,41.4,30.42,North,355,3.0,5.0,76,0.00,,,0.00,meteohub,2013-02-01 14:16:00,
2013-02-01 08:21:00,48.6,41.4,30.41,NNE,25,2.0,6.0,76,0.00,,,0.00,meteohub,2013-02-01 14:21:00,
2013-02-01 08:26:00,48.4,41.5,30.41,NNE,25,2.0,6.0,77,0.00,,,0.00,meteohub,2013-02-01 14:26:00,
2013-02-01 08:31:00,48.4,41.9,30.41,NNE,26,1.0,6.0,78,0.00,,,0.00,meteohub,2013-02-01 14:31:00,
2013-02-01 08:36:00,48.6,42.1,30.42,NNE,26,1.0,6.0,78,0.00,,,0.00,meteohub,2013-02-01 14:36:00,
2013-02-01 08:41:00,49.3,42.8,30.42,NNE,26,2.0,6.0,78,0.00,,,0.00,meteohub,2013-02-01 14:41:00,
2013-02-01 08:46:00,49.8,42.3,30.42,NNE,24,1.0,4.0,75,0.00,,,0.00,meteohub,2013-02-01 14:46:00,
2013-02-01 08:51:00,50.4,42.4,30.42,NNE,24,1.0,4.0,74,0.00,,,0.00,meteohub,2013-02-01 14:51:00,
2013-02-01 08:56:00,50.7,41.7,30.42,NNE,24,0.0,5.0,71,0.00,,,0.00,meteohub,2013-02-01 14:56:00,
2013-02-01 09:01:00,51.1,41.7,30.42,NNE,28,3.0,5.0,70,0.00,,,0.00,meteohub,2013-02-01 15:01:00,
2013-02-01 09:06:00,51.4,40.8,30.42,ENE,63,1.0,5.0,67,0.00,,,0.00,meteohub,2013-02-01 15:06:00,
2013-02-01 09:12:00,51.4,40.8,30.42,ENE,65,2.0,4.0,67,0.00,,,0.00,meteohub,2013-02-01 15:12:00,
2013-02-01 09:17:00,51.6,41.0,30.43,ENE,69,2.0,5.0,67,0.00,,,0.00,meteohub,2013-02-01 15:17:00,
2013-02-01 09:22:00,52.2,41.2,30.43,NE,49,3.0,7.0,66,0.00,,,0.00,meteohub,2013-02-01 15:22:00,
2013-02-01 09:27:00,52.2,40.8,30.43,NE,55,5.0,8.0,65,0.00,,,0.00,meteohub,2013-02-01 15:27:00,
2013-02-01 09:32:00,52.0,41.0,30.43,NE,46,6.0,9.0,66,0.00,,,0.00,meteohub,2013-02-01 15:32:00,
2013-02-01 09:37:00,52.2,41.2,30.43,NE,40,6.0,9.0,66,0.00,,,0.00,meteohub,2013-02-01 15:37:00,
2013-02-01 09:42:00,52.5,41.5,30.43,ENE,59,8.0,9.0,66,0.00,,,0.00,meteohub,2013-02-01 15:42:00,
2013-02-01 09:47:00,52.7,41.2,30.43,NE,44,6.0,9.0,65,0.00,,,0.00,meteohub,2013-02-01 15:47:00,
2013-02-01 09:52:00,53.1,40.8,30.43,NE,48,6.0,10.0,63,0.00,,,0.00,meteohub,2013-02-01 15:52:00,
2013-02-01 09:57:00,53.1,40.8,30.43,ENE,64,8.0,10.0,63,0.00,,,0.00,meteohub,2013-02-01 15:57:00,
2013-02-01 10:02:00,53.1,40.5,30.43,NE,55,6.0,10.0,62,0.00,,,0.00,meteohub,2013-02-01 16:02:00,
2013-02-01 10:07:00,53.4,41.2,30.43,NE,46,4.0,10.0,63,0.00,,,0.00,meteohub,2013-02-01 16:07:00,
2013-02-01 10:12:00,53.6,40.8,30.43,NE,51,5.0,10.0,62,0.00,,,0.00,meteohub,2013-02-01 16:12:00,
2013-02-01 10:17:00,54.1,41.0,30.43,NE,35,5.0,10.0,61,0.00,,,0.00,meteohub,2013-02-01 16:17:00,
2013-02-01 10:22:00,54.5,40.8,30.43,NE,34,5.0,10.0,60,0.00,,,0.00,meteohub,2013-02-01 16:22:00,
2013-02-01 10:27:00,54.3,39.9,30.43,ENE,63,2.0,9.0,58,0.00,,,0.00,meteohub,2013-02-01 16:27:00,
2013-02-01 10:32:00,54.7,40.3,30.43,NE,39,1.0,6.0,58,0.00,,,0.00,meteohub,2013-02-01 16:32:00,
2013-02-01 10:37:00,54.9,40.3,30.43,ENE,74,4.0,6.0,58,0.00,,,0.00,meteohub,2013-02-01 16:37:00,
2013-02-01 10:42:00,55.2,41.2,30.43,ENE,76,2.0,8.0,59,0.00,,,0.00,meteohub,2013-02-01 16:42:00,
2013-02-01 10:47:00,55.2,40.6,30.43,NE,51,3.0,8.0,58,0.00,,,0.00,meteohub,2013-02-01 16:47:00,
2013-02-01 10:52:00,55.8,40.8,30.42,North,0,4.0,9.0,57,0.00,,,0.00,meteohub,2013-02-01 16:52:00,
2013-02-01 10:57:00,55.9,40.5,30.42,NE,34,3.0,9.0,56,0.00,,,0.00,meteohub,2013-02-01 16:57:00,
2013-02-01 11:02:00,55.9,40.5,30.42,NE,40,2.0,9.0,56,0.00,,,0.00,meteohub,2013-02-01 17:02:00,
2013-02-01 11:07:00,56.1,41.2,30.42,ENE,71,3.0,9.0,57,0.00,,,0.00,meteohub,2013-02-01 17:07:00,
2013-02-01 11:12:00,56.8,40.8,30.42,NNE,32,4.0,7.0,55,0.00,,,0.00,meteohub,2013-02-01 17:12:00,
2013-02-01 11:17:00,56.8,40.5,30.42,NE,49,6.0,8.0,54,0.00,,,0.00,meteohub,2013-02-01 17:17:00,
2013-02-01 11:22:00,57.4,41.4,30.42,North,5,3.0,9.0,55,0.00,,,0.00,meteohub,2013-02-01 17:22:00,
2013-02-01 11:27:00,57.6,40.1,30.41,NE,35,0.0,9.0,52,0.00,,,0.00,meteohub,2013-02-01 17:27:00,
2013-02-01 11:32:00,58.3,40.3,30.42,North,10,4.0,9.0,51,0.00,,,0.00,meteohub,2013-02-01 17:32:00,
2013-02-01 11:37:00,58.5,40.8,30.41,North,11,6.0,7.0,52,0.00,,,0.00,meteohub,2013-02-01 17:37:00,
2013-02-01 11:41:00,58.8,39.7,30.41,NNW,329,4.0,7.0,49,0.00,,,0.00,meteohub,2013-02-01 17:41:00,
2013-02-01 11:46:00,59.4,40.6,30.40,NE,38,3.0,8.0,50,0.00,,,0.00,meteohub,2013-02-01 17:46:00,
2013-02-01 11:51:00,59.4,41.2,30.40,NNE,24,5.0,8.0,51,0.00,,,0.00,meteohub,2013-02-01 17:51:00,
2013-02-01 11:57:00,58.8,41.2,30.40,NNE,22,5.0,8.0,52,0.00,,,0.00,meteohub,2013-02-01 17:57:00,
2013-02-01 12:02:00,58.8,40.3,30.40,NE,46,0.0,8.0,50,0.00,,,0.00,meteohub,2013-02-01 18:02:00,
2013-02-01 12:07:00,59.2,40.1,30.39,NE,49,0.0,6.0,49,0.00,,,0.00,meteohub,2013-02-01 18:07:00,
2013-02-01 12:12:00,59.2,41.0,30.39,ENE,71,1.0,6.0,51,0.00,,,0.00,meteohub,2013-02-01 18:12:00,
2013-02-01 12:17:00,59.7,41.0,30.39,NE,54,0.0,6.0,50,0.00,,,0.00,meteohub,2013-02-01 18:17:00,
2013-02-01 12:22:00,60.3,40.5,30.39,NNE,18,8.0,8.0,48,0.00,,,0.00,meteohub,2013-02-01 18:22:00,
2013-02-01 12:27:00,59.7,39.9,30.38,NE,54,1.0,8.0,48,0.00,,,0.00,meteohub,2013-02-01 18:27:00,
2013-02-01 12:32:00,60.1,39.7,30.38,NNE,33,1.0,8.0,47,0.00,,,0.00,meteohub,2013-02-01 18:32:00,
2013-02-01 12:37:00,60.3,39.9,30.38,NE,37,0.0,8.0,47,0.00,,,0.00,meteohub,2013-02-01 18:37:00,
2013-02-01 12:42:00,60.6,41.4,30.38,NNE,26,3.0,6.0,49,0.00,,,0.00,meteohub,2013-02-01 18:42:00,
2013-02-01 12:47:00,61.0,41.7,30.37,NE,34,2.0,7.0,49,0.00,,,0.00,meteohub,2013-02-01 18:47:00,
2013-02-01 12:52:00,60.4,40.6,30.37,ENE,64,0.0,7.0,48,0.00,,,0.00,meteohub,2013-02-01 18:52:00,
2013-02-01 12:57:00,60.8,39.4,30.37,NE,34,0.0,7.0,45,0.00,,,0.00,meteohub,2013-02-01 18:57:00,
2013-02-01 13:02:00,61.5,41.2,30.37,NE,36,1.0,5.0,47,0.00,,,0.00,meteohub,2013-02-01 19:02:00,
2013-02-01 13:07:00,61.3,39.2,30.37,NNW,333,5.0,5.0,44,0.00,,,0.00,meteohub,2013-02-01 19:07:00,
2013-02-01 13:12:00,61.5,41.7,30.36,NE,39,3.0,6.0,48,0.00,,,0.00,meteohub,2013-02-01 19:12:00,
2013-02-01 13:17:00,61.5,39.4,30.36,NE,40,0.0,6.0,44,0.00,,,0.00,meteohub,2013-02-01 19:17:00,
2013-02-01 13:22:00,61.5,40.5,30.36,NE,42,4.0,6.0,46,0.00,,,0.00,meteohub,2013-02-01 19:22:00,
2013-02-01 13:27:00,61.9,40.3,30.36,NE,38,0.0,5.0,45,0.00,,,0.00,meteohub,2013-02-01 19:27:00,
2013-02-01 13:32:00,62.1,41.0,30.36,NNE,15,6.0,6.0,46,0.00,,,0.00,meteohub,2013-02-01 19:32:00,
2013-02-01 13:37:00,61.9,40.3,30.36,North,355,2.0,6.0,45,0.00,,,0.00,meteohub,2013-02-01 19:37:00,
2013-02-01 13:42:00,62.2,40.6,30.35,NNE,15,1.0,6.0,45,0.00,,,0.00,meteohub,2013-02-01 19:42:00,
2013-02-01 13:47:00,62.8,40.5,30.35,NE,36,2.0,6.0,44,0.00,,,0.00,meteohub,2013-02-01 19:47:00,
2013-02-01 13:52:00,62.8,41.2,30.35,NE,51,0.0,5.0,45,0.00,,,0.00,meteohub,2013-02-01 19:52:00,
2013-02-01 13:57:00,62.8,40.5,30.35,ENE,74,3.0,5.0,44,0.00,,,0.00,meteohub,2013-02-01 19:57:00,
2013-02-01 14:02:00,62.2,40.6,30.35,ENE,76,0.0,9.0,45,0.00,,,0.00,meteohub,2013-02-01 20:02:00,
2013-02-01 14:07:00,63.0,40.6,30.35,ENE,76,0.0,9.0,44,0.00,,,0.00,meteohub,2013-02-01 20:07:00,
2013-02-01 14:12:00,63.0,40.6,30.35,ENE,61,2.0,9.0,44,0.00,,,0.00,meteohub,2013-02-01 20:12:00,
2013-02-01 14:17:00,63.0,40.6,30.35,NE,53,1.0,6.0,44,0.00,,,0.00,meteohub,2013-02-01 20:17:00,
2013-02-01 14:22:00,63.3,40.5,30.35,ENE,61,2.0,6.0,43,0.00,,,0.00,meteohub,2013-02-01 20:22:00,
2013-02-01 14:27:00,63.1,40.3,30.34,East,96,2.0,5.0,43,0.00,,,0.00,meteohub,2013-02-01 20:27:00,
2013-02-01 14:32:00,63.9,40.3,30.35,East,80,1.0,5.0,42,0.00,,,0.00,meteohub,2013-02-01 20:32:00,
2013-02-01 14:37:00,63.5,39.9,30.34,East,80,2.0,5.0,42,0.00,,,0.00,meteohub,2013-02-01 20:37:00,
2013-02-01 14:42:00,63.7,40.1,30.34,ENE,65,4.0,7.0,42,0.00,,,0.00,meteohub,2013-02-01 20:42:00,
2013-02-01 14:47:00,63.0,38.3,30.34,ENE,73,1.0,7.0,40,0.00,,,0.00,meteohub,2013-02-01 20:47:00,
2013-02-01 14:52:00,63.1,39.0,30.33,East,92,2.0,7.0,41,0.00,,,0.00,meteohub,2013-02-01 20:52:00,
2013-02-01 14:57:00,63.1,38.5,30.33,East,86,1.0,7.0,40,0.00,,,0.00,meteohub,2013-02-01 20:57:00,
2013-02-01 15:02:00,63.9,38.5,30.34,East,80,1.0,7.0,39,0.00,,,0.00,meteohub,2013-02-01 21:02:00,
2013-02-01 15:07:00,64.0,38.7,30.33,East,97,5.0,5.0,39,0.00,,,0.00,meteohub,2013-02-01 21:07:00,
2013-02-01 15:12:00,63.5,38.7,30.33,East,100,2.0,7.0,40,0.00,,,0.00,meteohub,2013-02-01 21:12:00,
2013-02-01 15:17:00,63.9,39.7,30.33,ENE,78,4.0,7.0,41,0.00,,,0.00,meteohub,2013-02-01 21:17:00,
2013-02-01 15:22:00,64.0,39.2,30.33,NNE,26,0.0,7.0,40,0.00,,,0.00,meteohub,2013-02-01 21:22:00,
2013-02-01 15:27:00,64.4,38.8,30.32,NNE,24,5.0,6.0,39,0.00,,,0.00,meteohub,2013-02-01 21:27:00,
2013-02-01 15:32:00,63.9,37.0,30.32,ENE,71,3.0,6.0,37,0.00,,,0.00,meteohub,2013-02-01 21:32:00,
2013-02-01 15:37:00,63.9,39.7,30.32,NE,51,4.0,6.0,41,0.00,,,0.00,meteohub,2013-02-01 21:37:00,
2013-02-01 15:42:00,64.0,40.5,30.32,NE,36,6.0,6.0,42,0.00,,,0.00,meteohub,2013-02-01 21:42:00,
2013-02-01 15:47:00,64.2,40.6,30.32,ENE,64,5.0,6.0,42,0.00,,,0.00,meteohub,2013-02-01 21:47:00,
2013-02-01 15:52:00,63.9,39.0,30.32,ENE,57,2.0,8.0,40,0.00,,,0.00,meteohub,2013-02-01 21:52:00,
2013-02-01 15:57:00,64.0,39.9,30.32,NE,52,2.0,8.0,41,0.00,,,0.00,meteohub,2013-02-01 21:57:00,
2013-02-01 16:02:00,64.0,39.2,30.33,NE,49,0.0,8.0,40,0.00,,,0.00,meteohub,2013-02-01 22:02:00,
2013-02-01 16:07:00,64.2,40.6,30.33,NE,42,1.0,7.0,42,0.00,,,0.00,meteohub,2013-02-01 22:07:00,
2013-02-01 16:12:00,64.6,41.0,30.32,NE,42,3.0,5.0,42,0.00,,,0.00,meteohub,2013-02-01 22:12:00,
2013-02-01 16:17:00,64.6,39.0,30.32,ESE,103,2.0,13.0,39,0.00,,,0.00,meteohub,2013-02-01 22:17:00,
2013-02-01 16:22:00,64.2,37.4,30.33,East,88,3.0,13.0,37,0.00,,,0.00,meteohub,2013-02-01 22:22:00,
2013-02-01 16:27:00,64.0,37.2,30.32,ENE,74,2.0,13.0,37,0.00,,,0.00,meteohub,2013-02-01 22:27:00,
2013-02-01 16:32:00,64.0,38.7,30.33,ESE,102,7.0,11.0,39,0.00,,,0.00,meteohub,2013-02-01 22:32:00,
2013-02-01 16:37:00,64.2,40.6,30.33,ESE,110,4.0,7.0,42,0.00,,,0.00,meteohub,2013-02-01 22:37:00,
2013-02-01 16:42:00,64.0,37.9,30.33,ESE,116,4.0,7.0,38,0.00,,,0.00,meteohub,2013-02-01 22:42:00,
2013-02-01 16:47:00,64.0,38.7,30.33,ESE,116,2.0,7.0,39,0.00,,,0.00,meteohub,2013-02-01 22:47:00,
2013-02-01 16:52:00,64.0,37.9,30.32,ESE,116,0.0,7.0,38,0.00,,,0.00,meteohub,2013-02-01 22:52:00,
2013-02-01 16:57:00,63.9,38.5,30.32,ESE,116,3.0,5.0,39,0.00,,,0.00,meteohub,2013-02-01 22:57:00,
2013-02-01 17:02:00,63.9,39.0,30.33,ESE,105,1.0,5.0,40,0.00,,,0.00,meteohub,2013-02-01 23:02:00,
2013-02-01 17:07:00,63.9,39.7,30.33,ESE,112,4.0,5.0,41,0.00,,,0.00,meteohub,2013-02-01 23:07:00,
2013-02-01 17:12:00,63.9,39.7,30.32,ESE,116,0.0,5.0,41,0.00,,,0.00,meteohub,2013-02-01 23:12:00,
2013-02-01 17:17:00,63.9,39.7,30.32,ESE,116,0.0,5.0,41,0.00,,,0.00,meteohub,2013-02-01 23:17:00,
2013-02-01 17:22:00,63.9,40.3,30.32,ESE,116,1.0,5.0,42,0.00,,,0.00,meteohub,2013-02-01 23:22:00,
2013-02-01 17:27:00,63.1,40.3,30.32,ESE,116,0.0,2.0,43,0.00,,,0.00,meteohub,2013-02-01 23:27:00,
2013-02-01 17:32:00,62.6,39.7,30.32,ESE,116,1.0,2.0,43,0.00,,,0.00,meteohub,2013-02-01 23:32:00,
2013-02-01 17:37:00,62.8,39.4,30.32,ESE,116,0.0,2.0,42,0.00,,,0.00,meteohub,2013-02-01 23:37:00,
2013-02-01 17:42:00,62.6,40.5,30.32,ESE,116,0.0,1.0,44,0.00,,,0.00,meteohub,2013-02-01 23:42:00,
2013-02-01 17:47:00,62.1,39.9,30.32,ESE,116,0.0,1.0,44,0.00,,,0.00,meteohub,2013-02-01 23:47:00,
2013-02-01 17:52:00,62.1,39.9,30.32,ESE,116,0.0,1.0,44,0.00,,,0.00,meteohub,2013-02-01 23:52:00,
2013-02-01 17:57:00,62.1,39.4,30.32,ESE,116,0.0,1.0,43,0.00,,,0.00,meteohub,2013-02-01 23:57:00,
2013-02-01 18:02:00,62.1,39.4,30.32,ESE,116,0.0,0.0,43,0.00,,,0.00,meteohub,2013-02-02 00:02:00,
2013-02-01 18:07:00,62.4,39.6,30.32,ESE,116,0.0,1.0,43,0.00,,,0.00,meteohub,2013-02-02 00:07:00,
2013-02-01 18:12:00,62.1,42.1,30.32,ESE,116,0.0,1.0,48,0.00,,,0.00,meteohub,2013-02-02 00:12:00,
2013-02-01 18:17:00,61.2,40.3,30.32,ESE,116,0.0,1.0,46,0.00,,,0.00,meteohub,2013-02-02 00:17:00,
2013-02-01 18:22:00,61.2,40.8,30.32,ESE,116,0.0,1.0,47,0.00,,,0.00,meteohub,2013-02-02 00:22:00,
2013-02-01 18:27:00,61.3,40.5,30.32,ESE,116,0.0,2.0,46,0.00,,,0.00,meteohub,2013-02-02 00:27:00,
2013-02-01 18:32:00,61.0,42.3,30.32,ESE,116,0.0,3.0,50,0.00,,,0.00,meteohub,2013-02-02 00:32:00,
2013-02-01 18:37:00,60.4,41.7,30.33,ESE,116,0.0,3.0,50,0.00,,,0.00,meteohub,2013-02-02 00:37:00,
2013-02-01 18:42:00,60.3,41.0,30.33,SE,126,3.0,7.0,49,0.00,,,0.00,meteohub,2013-02-02 00:42:00,
2013-02-01 18:47:00,59.9,41.7,30.33,SE,127,7.0,8.0,51,0.00,,,0.00,meteohub,2013-02-02 00:47:00,
2013-02-01 18:52:00,59.5,41.9,30.32,ESE,120,7.0,11.0,52,0.00,,,0.00,meteohub,2013-02-02 00:52:00,
2013-02-01 18:57:00,59.4,41.7,30.33,SE,128,8.0,11.0,52,0.00,,,0.00,meteohub,2013-02-02 00:57:00,
2013-02-01 19:02:00,59.4,42.3,30.33,SE,132,4.0,11.0,53,0.00,,,0.00,meteohub,2013-02-02 01:02:00,
2013-02-01 19:07:00,59.0,41.9,30.33,SE,133,4.0,9.0,53,0.00,,,0.00,meteohub,2013-02-02 01:07:00,
2013-02-01 19:12:00,58.8,42.3,30.33,SE,136,4.0,9.0,54,0.00,,,0.00,meteohub,2013-02-02 01:12:00,
2013-02-01 19:17:00,58.8,41.7,30.33,SE,130,5.0,8.0,53,0.00,,,0.00,meteohub,2013-02-02 01:17:00,
2013-02-01 19:22:00,58.6,42.1,30.33,SE,124,4.0,7.0,54,0.00,,,0.00,meteohub,2013-02-02 01:22:00,
2013-02-01 19:27:00,58.5,42.4,30.33,SE,136,5.0,9.0,55,0.00,,,0.00,meteohub,2013-02-02 01:27:00,
2013-02-01 19:32:00,58.1,42.4,30.33,SE,126,5.0,10.0,56,0.00,,,0.00,meteohub,2013-02-02 01:32:00,
2013-02-01 19:37:00,57.9,42.8,30.33,SE,135,5.0,10.0,57,0.00,,,0.00,meteohub,2013-02-02 01:37:00,
2013-02-01 19:42:00,57.7,42.6,30.33,SE,136,4.0,10.0,57,0.00,,,0.00,meteohub,2013-02-02 01:42:00,
2013-02-01 19:47:00,57.7,43.0,30.33,SE,136,5.0,9.0,58,0.00,,,0.00,meteohub,2013-02-02 01:47:00,
2013-02-01 19:52:00,57.7,43.9,30.33,SSE,152,2.0,11.0,60,0.00,,,0.00,meteohub,2013-02-02 01:52:00,
2013-02-01 19:57:00,57.6,43.3,30.33,SSE,157,0.0,11.0,59,0.00,,,0.00,meteohub,2013-02-02 01:57:00,
2013-02-01 20:02:00,57.6,43.7,30.33,SSE,148,1.0,11.0,60,0.00,,,0.00,meteohub,2013-02-02 02:02:00,
2013-02-01 20:07:00,57.2,43.9,30.33,SE,139,5.0,9.0,61,0.00,,,0.00,meteohub,2013-02-02 02:07:00,
2013-02-01 20:12:00,57.2,44.2,30.33,SE,139,7.0,10.0,62,0.00,,,0.00,meteohub,2013-02-02 02:12:00,
2013-02-01 20:17:00,57.2,44.2,30.34,SE,140,4.0,10.0,62,0.00,,,0.00,meteohub,2013-02-02 02:17:00,
2013-02-01 20:22:00,57.2,44.8,30.34,SSE,157,3.0,10.0,63,0.00,,,0.00,meteohub,2013-02-02 02:22:00,
2013-02-01 20:27:00,57.0,44.1,30.34,SSE,147,3.0,9.0,62,0.00,,,0.00,meteohub,2013-02-02 02:27:00,
2013-02-01 20:32:00,56.8,44.8,30.34,South,169,3.0,9.0,64,0.00,,,0.00,meteohub,2013-02-02 02:32:00,
2013-02-01 20:37:00,56.8,45.1,30.34,South,174,6.0,10.0,65,0.00,,,0.00,meteohub,2013-02-02 02:37:00,
2013-02-01 20:42:00,56.8,45.1,30.34,SSE,167,2.0,11.0,65,0.00,,,0.00,meteohub,2013-02-02 02:42:00,
2013-02-01 20:47:00,56.7,45.0,30.34,SE,146,3.0,11.0,65,0.00,,,0.00,meteohub,2013-02-02 02:47:00,
2013-02-01 20:52:00,56.5,45.3,30.34,SSE,163,4.0,11.0,66,0.00,,,0.00,meteohub,2013-02-02 02:52:00,
2013-02-01 20:57:00,56.7,45.0,30.34,SSE,166,4.0,11.0,65,0.00,,,0.00,meteohub,2013-02-02 02:57:00,
2013-02-01 21:02:00,56.8,45.1,30.34,SSE,165,4.0,10.0,65,0.00,,,0.00,meteohub,2013-02-02 03:02:00,
2013-02-01 21:07:00,57.0,45.3,30.35,SSE,157,5.0,12.0,65,0.00,,,0.00,meteohub,2013-02-02 03:07:00,
2013-02-01 21:12:00,56.8,45.1,30.35,South,173,8.0,12.0,65,0.00,,,0.00,meteohub,2013-02-02 03:12:00,
2013-02-01 21:17:00,57.0,45.9,30.35,South,178,5.0,12.0,66,0.00,,,0.00,meteohub,2013-02-02 03:17:00,
2013-02-01 21:22:00,57.4,46.0,30.35,SSW,199,3.0,12.0,66,0.00,,,0.00,meteohub,2013-02-02 03:22:00,
2013-02-01 21:27:00,57.4,46.0,30.35,SSW,208,4.0,12.0,66,0.00,,,0.00,meteohub,2013-02-02 03:27:00,
2013-02-01 21:32:00,57.0,45.3,30.35,SW,234,8.0,9.0,65,0.00,,,0.00,meteohub,2013-02-02 03:32:00,
2013-02-01 21:37:00,56.3,45.1,30.35,West,262,9.0,9.0,66,0.00,,,0.00,meteohub,2013-02-02 03:37:00,
2013-02-01 21:42:00,55.8,45.0,30.35,WSW,248,7.0,13.0,67,0.00,,,0.00,meteohub,2013-02-02 03:42:00,
2013-02-01 21:47:00,55.9,45.5,30.35,SW,225,5.0,13.0,68,0.00,,,0.00,meteohub,2013-02-02 03:47:00,
2013-02-01 21:52:00,56.1,45.3,30.34,SW,228,8.0,13.0,67,0.00,,,0.00,meteohub,2013-02-02 03:52:00,
2013-02-01 21:57:00,55.8,45.0,30.34,SW,227,8.0,12.0,67,0.00,,,0.00,meteohub,2013-02-02 03:57:00,
2013-02-01 22:02:00,55.4,45.0,30.34,WSW,242,5.0,12.0,68,0.00,,,0.00,meteohub,2013-02-02 04:02:00,
2013-02-01 22:07:00,55.4,45.9,30.35,SW,233,4.0,12.0,70,0.00,,,0.00,meteohub,2013-02-02 04:07:00,
2013-02-01 22:12:00,55.2,45.7,30.35,WSW,242,2.0,12.0,70,0.00,,,0.00,meteohub,2013-02-02 04:12:00,
2013-02-01 22:17:00,55.6,45.5,30.35,WSW,240,3.0,9.0,69,0.00,,,0.00,meteohub,2013-02-02 04:17:00,
2013-02-01 22:22:00,55.6,45.1,30.34,WSW,244,7.0,10.0,68,0.00,,,0.00,meteohub,2013-02-02 04:22:00,
2013-02-01 22:27:00,55.6,45.1,30.34,WSW,247,10.0,12.0,68,0.00,,,0.00,meteohub,2013-02-02 04:27:00,
2013-02-01 22:32:00,55.2,44.8,30.34,WSW,242,5.0,12.0,68,0.00,,,0.00,meteohub,2013-02-02 04:32:00,
2013-02-01 22:37:00,55.2,45.1,30.34,SW,215,2.0,12.0,69,0.00,,,0.00,meteohub,2013-02-02 04:37:00,
2013-02-01 22:43:00,55.8,45.7,30.34,SSW,196,7.0,12.0,69,0.00,,,0.00,meteohub,2013-02-02 04:43:00,
2013-02-01 22:48:00,55.9,45.9,30.34,SW,225,1.0,12.0,69,0.00,,,0.00,meteohub,2013-02-02 04:48:00,
2013-02-01 22:53:00,56.1,45.7,30.34,WSW,252,0.0,9.0,68,0.00,,,0.00,meteohub,2013-02-02 04:53:00,
2013-02-01 22:58:00,55.9,45.1,30.34,SW,222,4.0,9.0,67,0.00,,,0.00,meteohub,2013-02-02 04:58:00,
2013-02-01 23:00:00,55.9,44.8,30.34,SW,229,2.0,9.0,66,0.00,,,0.00,meteohub,2013-02-02 05:00:00,
2013-02-01 23:01:00,55.8,45.0,30.34,WSW,243,3.0,8.0,67,0.00,,,0.00,meteohub,2013-02-02 05:01:00,
2013-02-01 23:06:00,54.9,44.4,30.34,SW,231,2.0,8.0,68,0.00,,,0.00,meteohub,2013-02-02 05:06:00,
2013-02-01 23:11:00,54.1,44.6,30.34,WSW,246,5.0,11.0,70,0.00,,,0.00,meteohub,2013-02-02 05:11:00,
2013-02-01 23:16:00,53.4,44.2,30.35,West,264,2.0,11.0,71,0.00,,,0.00,meteohub,2013-02-02 05:16:00,
2013-02-01 23:21:00,52.7,44.2,30.35,West,262,0.0,11.0,73,0.00,,,0.00,meteohub,2013-02-02 05:21:00,
2013-02-01 23:26:00,51.4,44.1,30.34,West,262,0.0,8.0,76,0.00,,,0.00,meteohub,2013-02-02 05:26:00,
2013-02-01 23:31:00,51.6,44.6,30.34,West,262,0.0,4.0,77,0.00,,,0.00,meteohub,2013-02-02 05:31:00,
2013-02-01 23:36:00,52.0,44.6,30.35,West,262,0.0,2.0,76,0.00,,,0.00,meteohub,2013-02-02 05:36:00,
2013-02-01 23:41:00,52.0,44.6,30.35,West,262,0.0,1.0,76,0.00,,,0.00,meteohub,2013-02-02 05:41:00,
2013-02-01 23:46:00,52.2,44.8,30.35,West,262,1.0,2.0,76,0.00,,,0.00,meteohub,2013-02-02 05:46:00,
2013-02-01 23:51:00,52.0,44.6,30.35,West,262,0.0,2.0,76,0.00,,,0.00,meteohub,2013-02-02 05:51:00,
2013-02-01 23:56:00,52.2,44.8,30.35,West,262,0.0,2.0,76,0.00,,,0.00,meteohub,2013-02-02 05:56:00,